星链-1974 (STARLINK-1974 )

导读 | 星芒AI

STARLINK-1974 是 SpaceX Starlink 卫星互联网项目中的一个卫星编号。该卫星属于第二代 Starlink 任务的一部分,旨在为全球用户提供高速互联网服务。它运行在近地轨道,具备先进通信技术,支持低延迟和高带宽的数据传输。STARLINK-1974 由 SpaceX 设计、制造并发射,是实现全球宽带覆盖计划的重要组成部分。该卫星的部署有助于提升偏远地区的网络接入能力,并推动全球数字连接的发展。

基本信息
目录编号:
47629
目录名称:
STARLINK-1974
国际标识:
2021-012K
轨道中心:
EARTH
卫星名称:
星链-1974
卫星全名:
星链-1974 (STARLINK-1974 )
卫星状态:
已陨落 最后检测时间 2025-05-22
发射日期:
2021-02-16 UTC
国别 :
美国 (US)
星等 :
--
轨道信息
数据来源 国际轨道数据
星历时间: 2025-05-22T18:27:12+0800
轨道信息已过期208天
半长轴: 6537.089km
偏心率: 0.0004988
轨道倾角: 53.027°
近地点辐角 280.560°
升交点赤经 136.308°
平近点角 203.760°
近地点: 155.693km
远地点: 162.215km
周期: 87.667分钟
每日圈数: 16.425789
详细信息
固有亮度:
5
最大亮度:
2.5
卫星平台:
Starlink V1.0
覆盖范围:
全球
运营商:
太空探索技术公司
运营商所在国:
美国
制造商(研发单位):
太空探索技术公司
制造商所在国:
美国
使用方式:
暂无
卫星简介
星链(Starlink)计划是由太空探索技术公司(SpaceX)提出的一个巨型低轨卫星互联网星座项目,计划在2019年至2024年间在太空搭建由约1.2万颗卫星组成的“星链”网络,其中1584颗将部署在地球上空550千米处的近地轨道,并从2020年开始工作。该卫星仍在工作。